{"data":{"norad_id":62818,"intl_designator":"2025-018N","name":"STARLINK-32853","alt_names":[],"object_type":"PAYLOAD","status":"ACTIVE","operator":null,"country":"US","launch_date":"2025-01-24","launch_site_code":"AFWTR","launch_vehicle":null,"mission":null,"orbit_class":"UNKNOWN","rcs_meters":null,"size_class":null,"mass_kg":null,"dimensions":null,"purposes":["comms"],"wikipedia_slug":null,"has_3d_model":false,"image_url":null,"decayed_at":null,"tle_current":{"epoch":"2026-09-21T19:50:57.962400Z","epoch_age_seconds":53589,"freshness":"FRESH","line1":"1 62818U 25018N   26264.82705975  .00011566  00000+0  35291-3 0  9995","line2":"2 62818  53.1583 115.3127 0001766  58.5596 301.5579 15.34401170 93255","mean_motion":15.3440117,"eccentricity":0.0001766,"inclination_deg":53.1583,"raan_deg":115.3127,"arg_perigee_deg":58.5596,"mean_anomaly_deg":301.5579,"bstar":0.00035291,"rev_number":9325,"period_min":93.847686521251,"perigee_km":461.49167095045,"apogee_km":463.90785449505,"semimajor_km":6840.8367627227,"source":"CELESTRAK","updated_at":"2026-09-22T09:00:49.669014Z"}}}